Regional Weather Roundup
Issued by NWS

Home | Current Version | Previous Version | Text Only | Print | Product List | Glossary On
Versions: 1 2 3 4 5 6 7 8 9 10 11 12 13 14 15 16 17 18 19 20 21 22 23 24 25 26 27 28 29 30 31 32 33 34 35 36 37 38 39 40 41 42 43 44 45 46 47 48 49 50
931
ASUS43 KLOT 072203
RWRIL

ILLINOIS REGIONAL WEATHER ROUNDUP
NATIONAL WEATHER SERVICE CHICAGO/ROMEOVILLE IL
400 PM CST WED DEC 07 2016

NOTE: "FAIR" INDICATES FEW OR NO CLOUDS BELOW 12,000 FEET WITH NO
SIGNIFICANT WEATHER AND/OR OBSTRUCTIONS TO VISIBILITY.

* THESE STATIONS ARE NOT UNDER NWS QUALITY CONTROL. THEY ALSO MAY NOT
  REPORT WEATHER SUCH AS PRECIPITATION OR FOG.

ILZ001-002-007-009-015-016-024-072300-
NORTHWEST ILLINOIS

CITY           SKY/WX    TMP DP  RH WIND       PRES   REMARKS
MOLINE         MOCLDY    27  15  61 W15G24    30.19R WCI  15
STERLING*      PTCLDY    25  18  74 W14       30.16R WCI  13
SAVANNA*       CLOUDY    24  15  69 W14G21    30.16R WCI  11
$$

ILZ003-004-008-010-011-017-018-072300-
NORTH CENTRAL ILLINOIS

CITY           SKY/WX    TMP DP  RH WIND       PRES   REMARKS
ROCKFORD       CLOUDY    24  16  71 W15       30.13R WCI  11
FREEPORT*      CLOUDY    21  15  76 W12G17    30.14R WCI   9
ROCHELLE*      PTCLDY    24  18  79 W18       30.13S WCI   9
$$

ILZ005-006-012>014-019>023-072300-
NORTHEAST ILLINOIS

CITY           SKY/WX    TMP DP  RH WIND       PRES   REMARKS
CHICAGO-OHARE  MOCLDY    24  17  74 W17G26    30.10R WCI  11
CHICAGO-MIDWAY MOCLDY    27  17  66 W16       30.12R WCI  15
AURORA         CLOUDY    25  18  74 SW12      30.13R WCI  14
LANSING*       CLOUDY    28  23  80 W15G21    30.12S WCI  17
WAUKEGAN       CLOUDY    26  18  71 SW12G20   30.06R WCI  16
DUPAGE AIRPORT PTCLDY    24  16  71 W15       30.11R WCI  11
KANKAKEE*      PTCLDY    30  22  72 W14G20    30.16R WCI  19
WHEELING       PTCLDY    26  17  68 W13       30.10R WCI  15
MORRIS*        CLOUDY    28  22  79 W14       30.14S WCI  17
NORTHERLY ISL    N/A     28  19  69 W16         N/A  WCI  16
$$

LMZ740>746-072300-
SOUTHERN LAKE MICHIGAN

STATION/POSITION SKY/WX   TEMP    WIND        PRES    VSBY  WAVE
                          AIR SEA DIR/SP/G                  HT/PER
                          (F)     (DEG/KT/KT) (MB)    (MI)  (FT/S)
HARRISON CRIB              28     230/ 18/ 21   N/A
BURNHAM HARBOR             27     230/  9/ 16   N/A
CALUMET HARBOR             27     230/ 13/ 20 1018.8R
BURNS HARBOR               31     240/ 14/ 20 1019.6S
MICHIGAN CITY              30     190/ 16/ 18   N/A
$$

ILZ025>027-034>036-040-047-049-050-058-095>099-072300-
WEST-CENTRAL ILLINOIS

CITY           SKY/WX    TMP DP  RH WIND       PRES   REMARKS
QUINCY         CLOUDY    30  17  58 W9        30.23R WCI  22
GALESBURG*     MOCLDY    27  18  68 W17       30.20R WCI  15
MACOMB*        PTCLDY    30  19  61 W16       30.24R WCI  19
JACKSONVILLE*  MOCLDY    32  19  58 W10       30.23R WCI  23
PITTSFIELD*    PTCLDY    33  18  54 W9        30.24S WCI  25
$$

ILZ028>032-037-038-041>044-048-051>054-059>061-072300-
CENTRAL ILLINOIS

CITY           SKY/WX    TMP DP  RH WIND       PRES   REMARKS
PONTIAC        MOCLDY    31  23  72 W17       30.18R WCI  19
BLOOMINGTON    CLOUDY    30  20  66 W13       30.18R WCI  20
DECATUR        PTCLDY    32  19  58 W10       30.20R WCI  24
PEORIA         MOCLDY    30  17  58 W12       30.20R WCI  20
LACON*         PTCLDY    29  18  62 W13       30.18R WCI  19
LINCOLN*       MOCLDY    33  21  61 W7        30.20R WCI  27
SPRINGFIELD    MOCLDY    34  21  59 W9        30.22R WCI  27
TAYLORVILLE    CLOUDY    32  22  66 CALM      30.22R
$$

ILZ033-039-045-046-055>057-062-063-072300-
EAST-CENTRAL ILLINOIS

CITY           SKY/WX    TMP DP  RH WIND       PRES   REMARKS
CHAMPAIGN      PTCLDY    32  22  66 W13       30.18S WCI  22
RANTOUL*       PTCLDY    33  25  72 W12G17    30.17S WCI  24
MATTOON        CLOUDY    33  21  61 W8        30.18S WCI  26
PARIS*         CLOUDY    33  25  75 W9        30.19R WCI  25
$$

ILZ079-100>102-072300-
SOUTHWEST ILLINOIS

CITY           SKY/WX    TMP DP  RH WIND       PRES   REMARKS
BELLEVILLE     CLOUDY    37  17  45 NW8       30.23R WCI  30
CAHOKIA*       CLOUDY    37  17  44 NW8       30.24R WCI  31
SPARTA*        CLOUDY    36  20  52 CALM      30.24R
$$

ILZ064>066-069>071-074>076-080>082-084>086-088>090-092>094-072300-
SOUTH-CENTRAL ILLINOIS

CITY           SKY/WX    TMP DP  RH WIND       PRES   REMARKS
CARBONDALE     CLOUDY    38  23  55 N7        30.23R WCI  33
CAIRO*         CLOUDY    42  24  50 NW8       30.21R
EFFINGHAM*     CLOUDY    35  24  64 W6        30.22S WCI  30
CENTRALIA*     CLOUDY    36  24  63 CALM      30.23R
SALEM*         CLOUDY    36  21  55 W7        30.22S WCI  30
METROPOLIS*    CLOUDY    43  20  40 CALM      30.21R
$$

ILZ067-068-072-073-078-083-087-091-072300-
SOUTHEAST ILLINOIS

CITY           SKY/WX    TMP DP  RH WIND       PRES   REMARKS
LAWRENCEVILLE  CLOUDY    36  23  59 NW9       30.21R WCI  29
FLORA*         CLOUDY    37  25  60 NW8       30.23R WCI  31
FAIRFIELD*     CLOUDY    37  24  58 W3        30.22R
HARRISBURG*    CLOUDY    38  25  59 N7        30.21F WCI  33
ROBINSON*      CLOUDY    34  24  67 W7        30.22S WCI  28
CARMI*         CLOUDY    37  27  66 NW7       30.21S WCI  31
$$

ABBREVIATIONS USED IN REMARKS
   TC - TEMPERATURE IN CELSIUS
  WCI - WIND CHILL INDEX
   HX - HEAT INDEX
  VSB - VISIBILITY
$$





USA.gov is the U.S. government's official web portal to all federal, state and local government web resources and services.